This is the latest recevied weather packets stored in our database for station/object K4AMF. If no packets are shown the sender has not sent any weather packets the latest 1 day(s).
| Time | Temp. | Humidity | Pressure | Rain* | Wind** | Luminosity | Snow |
|---|---|---|---|---|---|---|---|
| 1778085295 | 28.89° C | 63% | 1018 hPa | 0 mm | - | 636 W/m² | - |
| 1778084990 | 28.89° C | 63% | 1018.1 hPa | 0 mm | - | 577 W/m² | - |
| 1778084688 | 28.89° C | 63% | 1018.3 hPa | 0 mm | - | 647 W/m² | - |
| 1778084380 | 28.89° C | 63% | 1018.3 hPa | 0 mm | - | 710 W/m² | - |
| 1778083164 | 28.33° C | 65% | 1018.5 hPa | 0 mm | - | 674 W/m² | - |
| 1778081743 | 27.22° C | 69% | 1018.5 hPa | 0 mm | - | 673 W/m² | - |
| 1778081440 | 27.78° C | 68% | 1018.3 hPa | 0 mm | - | 749 W/m² | - |
| 1778080533 | 26.67° C | 70% | 1018.4 hPa | 0 mm | - | 812 W/m² | - |
| 1778080230 | 26.67° C | 70% | 1018.5 hPa | 0 mm | - | 647 W/m² | - |
| 1778079926 | 26.67° C | 70% | 1018.4 hPa | 0 mm | - | 748 W/m² | - |
| 1778079320 | 27.22° C | 69% | 1018.4 hPa | 0 mm | - | 675 W/m² | - |
| 1778078714 | 26.11° C | 73% | 1018 hPa | 0 mm | - | 552 W/m² | - |
| 1778078109 | 26.11° C | 73% | 1018.2 hPa | 0 mm | - | 635 W/m² | - |
| 1778076900 | 25.56° C | 74% | 1018.3 hPa | 0 mm | - | 648 W/m² | - |
| 1778076295 | 25° C | 76% | 1018.4 hPa | 0 mm | - | 675 W/m² | - |
| 1778075992 | 25° C | 76% | 1018.2 hPa | 0 mm | - | 650 W/m² | - |
| 1778075385 | 25° C | 76% | 1018.3 hPa | 0 mm | - | 511 W/m² | - |
| 1778075081 | 24.44° C | 77% | 1018.3 hPa | 0 mm | - | 563 W/m² | - |
| 1778074172 | 23.89° C | 79% | 1018.3 hPa | 0 mm | - | 543 W/m² | - |
| 1778073263 | 23.33° C | 79% | 1018.3 hPa | 0 mm | - | 384 W/m² | - |
| 1778072960 | 22.78° C | 79% | 1018.2 hPa | 0 mm | - | 354 W/m² | - |
| 1778069632 | 21.11° C | 81% | 1017.7 hPa | 0 mm | - | 77 W/m² | - |
| 1778068724 | 20.56° C | 82% | 1017.5 hPa | 0 mm | - | 62 W/m² | - |
| 1778068422 | 20° C | 82% | 1017.6 hPa | 0 mm | - | 65 W/m² | - |
| 1778067817 | 20° C | 82% | 1017.6 hPa | 0 mm | - | 65 W/m² | - |
* Rain latest hour (hover to see other rain measurements)
** Current wind speed in m/s (hover to see current wind gust speed)